Marshfield, WI

4:24 AM CDT on May 29, 2017 (GMT -0500)
Marshfield Municipal

Weather History for KMFI - January, 2012

Change the Weather History Date:

Monday, January 30, 2012

  Actual Average Record
Temperature  
Mean Temperature 22 °F -  
Max Temperature 33 °F 24 °F 47 °F (1919)
Min Temperature 10 °F 4 °F -35 °F (1951)
Degree Days  
Heating Degree Days 44    
Moisture  
Dew Point 14 °F    
Average Humidity 72    
Maximum Humidity 81    
Minimum Humidity 61    
Precipitation  
Precipitation 0.00 in - - ()
Sea Level Pressure  
Sea Level Pressure 29.87 in    
Wind  
Wind Speed 7 mph (ESE)    
Max Wind Speed 14 mph    
Max Gust Speed -    
Visibility 8 miles    
Events Snow    
Averages and records for this station are not official NWS values.
T = Trace of Precipitation, MM = Missing Value Source: NWS Daily Summary

Daily Weather History Graph

Daily Weather History Graph

Search for Another Location

Airport or City:

Trip Planner

Search our weather history database for the weather conditions in past years. The results will help you decide how hot, cold, wet, or windy it might be!

Date:

Astronomy

Jan. 30, 2012 Rise Set
Actual Time 7:22 AM CST 5:06 PM CST
Civil Twilight 6:51 AM CST 5:37 PM CST
Nautical Twilight 6:16 AM CST 6:12 PM CST
Astronomical Twilight 5:41 AM CST 6:46 PM CST
Moon 10:23 AM CST (1/30) 12:10 AM CST (1/30)
Length of Visible Light 10h 46m
Length of Day
9h 43m
Waxing Crescent, 46% of the Moon is Illuminated
Jan 30
Waxing Crescent
Jan 30
First Quarter
Feb 7
Full
Feb 14
Last Quarter
Feb 21
New

Hourly Weather History & Observations

Time (CST) Temp. Windchill Dew Point Humidity Pressure Visibility Wind Dir Wind Speed Gust Speed Precip Events Conditions
12:54 AM 10.0 °F 3.6 °F 3.0 °F 73% 30.12 in 10.0 mi ESE 3.5 mph - N/A   Overcast
1:54 AM 12.0 °F 2.7 °F 3.9 °F 70% 30.09 in 10.0 mi ESE 5.8 mph - N/A   Overcast
2:54 AM 12.9 °F 2.6 °F 5.0 °F 71% 30.06 in 10.0 mi ESE 6.9 mph - N/A   Overcast
3:54 AM 15.1 °F 4.2 °F 7.0 °F 70% 30.01 in 6.0 mi ESE 8.1 mph - 0.00 in Snow Light Snow
4:46 AM 15.8 °F 4.2 °F 8.6 °F 73% 29.91 in 2.5 mi ESE 9.2 mph - 0.00 in Snow Light Snow
4:54 AM 15.1 °F 1.8 °F 8.1 °F 74% 29.97 in 1.8 mi ESE 11.5 mph - 0.00 in Snow Light Snow
5:00 AM 15.8 °F 3.4 °F 8.6 °F 73% 29.89 in 3.0 mi ESE 10.4 mph - 0.00 in Snow Light Snow
5:08 AM 15.8 °F 2.7 °F 8.6 °F 73% 29.89 in 7.0 mi ESE 11.5 mph - 0.00 in Snow Light Snow
5:54 AM 16.0 °F 2.3 °F 10.0 °F 77% 29.93 in 10.0 mi SE 12.7 mph - 0.00 in   Overcast
6:54 AM 18.0 °F 4.2 °F 10.9 °F 74% 29.92 in 10.0 mi SE 13.8 mph - N/A   Overcast
7:54 AM 19.0 °F 8.2 °F 12.0 °F 74% 29.91 in 10.0 mi ESE 9.2 mph - N/A   Overcast
8:54 AM 19.9 °F 7.9 °F 12.0 °F 71% 29.89 in 10.0 mi ESE 11.5 mph - N/A   Scattered Clouds
10:54 AM 24.1 °F 15.2 °F 15.1 °F 69% 29.85 in 10.0 mi ESE 8.1 mph - N/A   Clear
12:54 PM 30.0 °F 22.4 °F 19.0 °F 64% 29.78 in 10.0 mi SE 8.1 mph - N/A   Clear
2:54 PM 33.1 °F 26.9 °F 21.0 °F 61% 29.76 in 10.0 mi SSE 6.9 mph - N/A   Clear
3:54 PM 33.1 °F 28.7 °F 21.0 °F 61% 29.76 in 10.0 mi ESE 4.6 mph - N/A   Clear
4:54 PM 30.0 °F 24.1 °F 21.0 °F 69% 29.78 in 10.0 mi East 5.8 mph - N/A   Clear
5:54 PM 28.0 °F 22.8 °F 19.9 °F 72% 29.78 in 9.0 mi East 4.6 mph - N/A   Clear
6:54 PM 27.0 °F 21.6 °F 19.9 °F 75% 29.78 in 9.0 mi ENE 4.6 mph - N/A   Clear
7:54 PM 27.0 °F 23.0 °F 19.9 °F 75% 29.78 in 8.0 mi East 3.5 mph - N/A   Clear
8:54 PM 26.1 °F 21.9 °F 19.9 °F 78% 29.78 in 8.0 mi East 3.5 mph - N/A   Clear
9:54 PM 25.0 °F - 19.9 °F 81% 29.79 in 7.0 mi Calm Calm - N/A   Clear
10:54 PM 25.0 °F 20.7 °F 19.0 °F 78% 29.76 in 7.0 mi ENE 3.5 mph - N/A   Clear
11:54 PM 25.0 °F - 19.9 °F 81% 29.74 in 6.0 mi Calm Calm - N/A   Haze